Simultaneous Nadir Overpasses (SNOs) Predictions

Prediction of SNOs between METOP-A and NOAA-19 Satellite Orbit:

Table of predicted SNOs for the next 14.0 days since TLE Epoch: 2/6/2015
Index Date (METOP-A) Time (METOP-A) Lat,Lon (METOP-A) SZA (METOP-A ) Date (NOAA-19) Time (NOAA-19) Lat,Lon (NOAA-19) SZA (NOAA-19 ) Distance(km) Time Diff (sec)
1 02/11/2015 02:42:49 75.20, 137.09 89.35 02/11/2015 02:41:43 75.21, 134.00 89.47 87.71 66
2 02/11/2015 03:33:41 -74.69, -57.02 91.14 02/11/2015 03:32:27 -74.69, -57.18 91.12 4.73 74
3 02/11/2015 04:24:22 74.65, 110.21 88.82 02/11/2015 04:23:34 74.64, 110.15 88.82 1.90 48
4 02/11/2015 05:15:04 -74.62, -82.54 91.22 02/11/2015 05:14:29 -74.64, -82.57 91.20 2.06 35
5 02/11/2015 06:05:45 74.59, 84.69 88.74 02/11/2015 06:05:36 74.60, 84.77 88.75 2.78 9
6 02/11/2015 06:56:26 -74.60,-107.93 91.26 02/11/2015 06:56:31 -74.59,-107.95 91.27 1.27 5
7 02/11/2015 07:47:07 74.57, 59.30 88.70 02/11/2015 07:47:38 74.55, 59.39 88.68 2.95 31
8 02/11/2015 08:37:49 -74.54,-133.45 91.34 02/11/2015 08:38:33 -74.55,-133.33 91.34 3.64 44
9 02/11/2015 09:28:29 74.55, 33.91 88.66 02/11/2015 09:29:41 74.55, 33.87 88.66 1.41 72
10 02/11/2015 10:19:19 -74.13,-159.84 91.74 02/11/2015 10:20:28 -74.17,-157.82 91.78 61.54 69




NCC Satellite Simultaneous Nadir Overpasses (SNOs) Prediction Service
